GFSSW_850_spd_132.txt.gz
Wind_Speed
33 31 32 30 33 30 31 29 28 28 28 28 28 29 28 26 18 25 28 24 23 14 16 14 11 9 8 8 9 14 3 4 5 3 3 4 1 1 4 8 9 10 5 6 19
35 33 33 32 32 32 30 31 28 26 27 28 27 29 25 28 28 24 31 27 16 13 17 17 13 10 7 8 5 3 5 9 6 1 3 4 1 3 4 6 8 8 10 8 23
38 36 35 36 34 34 31 31 31 27 26 27 27 25 25 22 25 18 33 27 19 18 12 15 12 10 4 8 7 2 4 4 4 5 3 4 2 1 4 4 12 16 16 15 26
42 38 36 35 36 34 33 30 32 31 27 26 26 26 25 24 10 13 20 30 29 22 16 19 15 8 5 5 7 5 9 6 4 5 3 3 2 1 8 6 6 14 15 18 27
44 41 37 37 36 34 34 30 29 31 30 28 25 25 24 26 18 4 15 23 21 23 18 19 19 10 6 5 6 3 5 8 16 10 9 8 4 4 11 9 14 9 16 20 26
47 43 41 38 37 35 34 32 28 28 28 28 26 24 27 22 25 27 9 19 27 25 26 22 14 13 9 7 6 6 11 3 6 13 10 3 5 3 4 1 9 11 16 22 26
51 46 43 39 38 36 34 31 29 25 26 27 24 26 25 27 13 26 26 27 21 31 25 27 14 16 10 5 8 3 1 3 7 6 6 6 12 10 26 20 14 13 17 22 26
53 49 43 42 40 37 35 32 29 25 23 23 22 22 15 31 18 18 23 16 24 22 30 27 24 19 6 6 4 4 2 1 3 8 7 9 17 18 16 19 25 21 20 24 28
53 49 44 43 43 38 34 30 28 27 22 21 21 13 9 20 31 20 26 20 24 25 26 30 27 7 7 5 2 4 4 4 6 11 2 8 8 20 24 20 24 26 25 26 29
50 48 47 45 43 39 34 28 22 22 21 20 15 7 16 29 32 38 20 23 19 28 27 17 10 5 4 6 12 6 5 4 6 4 4 3 17 12 5 22 30 29 28 29 31
53 52 50 47 46 41 35 31 23 11 31 15 14 3 2 27 20 29 34 25 23 19 9 14 7 8 17 17 2 6 5 9 3 6 5 10 16 15 22 12 14 25 33 34 35
51 53 51 49 48 44 40 41 40 15 15 13 7 6 15 19 12 25 33 21 18 18 13 6 15 16 10 10 7 3 4 4 3 2 5 6 14 12 12 13 27 33 34 32 39
43 61 53 51 50 46 47 44 35 19 7 21 13 18 7 5 8 24 33 27 17 18 17 16 22 16 10 10 14 13 15 3 3 3 3 6 14 13 9 26 30 33 39 39 42
42 62 57 54 52 51 50 39 35 18 4 4 13 10 23 7 5 14 30 22 9 22 20 17 17 17 17 19 15 21 6 6 5 1 4 5 7 6 6 16 10 31 38 45 44
48 69 58 62 54 54 50 38 35 14 3 6 10 11 16 12 10 12 20 29 18 11 6 12 14 17 21 24 19 11 10 6 1 2 3 4 5 7 2 8 12 20 35 38 42
53 57 63 57 45 45 47 38 26 4 7 5 11 14 11 15 4 6 19 27 9 7 11 12 3 12 9 8 17 8 6 4 2 1 9 16 11 9 9 12 10 10 28 30 32
47 67 66 60 49 52 51 41 5 5 2 6 7 14 17 12 11 6 15 14 14 14 17 20 10 7 13 9 15 17 10 3 6 6 12 4 10 19 7 9 8 10 26 27 26
42 70 61 54 51 52 52 11 5 4 7 4 7 14 15 9 14 9 9 15 19 15 4 17 13 15 17 14 10 27 15 5 8 6 8 5 10 6 12 28 32 29 26 19 17
51 57 53 50 55 56 42 14 8 7 8 9 8 10 8 9 8 10 10 15 13 27 17 7 17 17 11 5 15 12 11 11 5 2 2 5 9 7 11 14 15 21 28 35 28
50 50 46 54 58 54 17 9 5 6 8 4 5 4 7 17 9 19 13 14 15 19 25 4 5 18 10 11 6 12 16 11 3 4 5 6 7 12 4 20 12 12 24 34 32
52 18 51 57 54 35 16 7 4 5 6 5 5 5 3 7 12 12 8 13 21 14 20 6 4 8 11 16 20 8 12 7 6 5 5 8 11 8 17 18 16 19 31 36 34
19 6 51 58 14 8 12 7 5 6 2 4 4 4 5 7 3 11 11 8 15 18 17 21 3 3 24 6 19 23 8 18 9 13 5 0 14 1 9 8 6 16 21 31 27
12 18 44 46 7 14 1 4 3 5 5 3 3 3 1 4 3 7 6 7 13 9 15 9 9 9 4 4 3 17 15 23 13 3 18 13 21 3 2 7 13 17 19 19 23
20 6 11 17 3 14 6 4 4 5 4 5 5 5 4 2 2 2 4 3 14 16 29 12 12 15 13 13 6 23 29 26 27 15 22 23 36 17 5 6 8 13 19 19 23
11 5 10 11 2 10 5 5 5 5 2 5 3 4 7 4 5 8 6 3 5 11 15 16 18 23 31 26 14 18 24 28 25 31 21 30 31 27 11 11 9 16 16 13 18
9 9 14 8 14 9 2 4 8 1 6 2 4 9 9 8 10 3 1 7 9 7 7 14 16 18 27 21 29 24 24 27 26 30 28 30 29 24 19 28 17 21 18 20 21
18 27 16 11 4 5 5 6 7 8 4 7 12 5 9 11 14 20 23 19 16 13 8 10 15 10 23 29 18 26 31 32 29 34 32 29 39 17 7 10 25 33 27 28 30

GFSSW_850_spd_138.txt.gz
Wind_Speed
28 27 26 25 24 23 28 26 33 31 28 30 31 30 25 25 23 24 26 23 24 16 13 15 11 10 9 4 5 6 7 14 19 16 7 1 3 2 4 4 7 9 4 5 11
32 30 30 27 26 24 23 28 27 32 29 27 29 31 28 25 23 29 28 24 22 24 14 15 11 10 6 4 4 8 12 19 17 18 13 6 3 2 3 6 8 9 13 9 12
34 33 32 31 28 26 26 28 26 28 29 27 27 30 29 26 23 27 28 27 26 20 19 16 12 9 9 4 6 4 13 15 15 21 25 22 17 4 5 7 12 12 12 14 15
33 35 34 32 31 29 24 26 30 26 27 27 26 27 27 22 11 16 23 24 27 15 17 13 10 8 9 10 8 7 12 12 10 8 9 14 15 14 14 12 4 7 9 14 19
35 33 35 34 33 32 27 27 30 27 27 24 25 25 23 23 25 4 11 29 25 28 17 13 8 7 8 7 6 11 10 13 7 8 8 5 15 16 14 13 14 13 14 14 19
37 34 35 36 35 33 31 28 26 29 26 24 24 25 25 22 22 24 1 20 33 32 32 25 13 8 2 1 8 7 18 9 6 12 7 8 16 7 13 16 17 17 15 15 17
38 36 35 37 35 35 33 30 28 31 27 27 22 24 25 27 18 14 26 11 17 28 28 28 22 15 2 2 8 11 7 9 14 10 7 8 17 15 24 17 15 13 13 15 17
38 36 36 36 37 36 34 32 28 29 28 27 23 21 14 22 19 21 21 21 13 20 22 27 24 16 16 7 2 7 7 15 10 12 8 11 23 18 23 26 29 30 26 19 19
42 36 37 37 38 37 35 32 28 26 24 23 22 17 11 13 29 24 25 24 23 19 18 16 20 11 11 8 4 5 8 23 17 13 5 14 16 13 19 23 27 29 31 29 24
42 44 35 37 41 40 37 32 25 25 24 22 16 9 16 26 21 28 24 25 19 16 11 13 10 3 4 9 12 15 19 17 16 9 11 13 18 18 17 10 23 26 25 25 27
40 41 44 41 37 44 40 33 30 16 32 12 19 9 3 16 20 25 27 20 17 18 13 13 7 12 14 12 19 14 18 18 12 8 7 15 18 20 24 23 26 29 25 26 30
40 39 41 42 39 50 47 46 52 29 18 14 14 15 7 16 12 22 30 22 18 17 16 8 20 25 16 9 17 13 11 14 9 6 7 12 19 21 25 23 29 31 31 34 30
38 41 42 47 36 39 54 55 37 34 9 7 15 25 8 15 7 20 30 31 17 20 16 20 19 15 20 16 14 17 18 9 11 3 9 9 20 25 19 25 30 34 35 35 34
39 42 42 42 39 47 58 52 39 34 6 8 10 10 14 9 5 14 31 25 15 19 19 16 27 15 10 18 18 14 13 12 13 4 7 1 9 19 13 14 15 25 30 35 35
40 43 43 43 40 61 59 52 45 24 9 16 13 12 20 19 12 14 25 22 22 15 15 12 17 13 18 22 21 8 13 19 20 17 11 14 7 18 15 19 20 25 28 31 31
43 43 44 43 42 51 60 54 37 7 8 10 17 19 19 14 8 11 16 18 15 18 19 19 7 13 24 15 13 11 5 2 3 4 8 22 15 12 18 21 21 26 30 26 27
43 43 42 46 48 48 60 45 7 9 8 11 13 19 24 14 10 12 14 17 14 14 24 26 23 18 8 17 21 18 7 2 4 6 9 6 15 22 16 18 20 19 24 23 22
45 39 44 47 39 64 60 19 10 8 11 10 16 21 24 20 13 12 12 14 23 20 10 18 13 26 21 26 17 25 22 9 9 7 12 6 12 9 20 29 32 30 27 24 25
43 39 45 49 43 72 48 19 10 16 11 18 25 23 11 18 11 16 19 15 19 21 14 15 18 6 15 21 23 20 17 25 14 1 5 6 17 9 9 12 16 23 26 29 31
43 39 38 51 50 67 20 9 5 11 20 24 12 15 16 20 14 19 17 18 20 23 21 8 9 19 11 17 15 11 7 6 5 9 13 13 22 14 8 16 17 18 24 26 29
41 24 35 48 45 45 19 5 5 21 31 10 11 13 15 18 20 14 13 6 19 16 27 10 8 1 13 18 21 8 11 9 4 4 11 14 14 18 19 19 19 17 19 17 20
20 5 37 48 13 8 12 14 13 16 9 6 9 12 16 21 17 18 17 18 13 21 24 22 4 10 16 8 11 23 15 17 9 6 6 8 16 2 4 8 16 14 16 18 20
22 8 38 57 12 7 8 13 8 10 8 6 5 6 11 16 10 14 12 11 7 17 11 11 10 10 4 3 8 14 24 23 13 3 15 7 13 9 14 9 11 14 22 21 12
12 6 9 23 19 22 20 13 10 6 5 8 8 12 12 16 3 13 8 5 9 11 13 18 11 13 16 3 2 3 19 22 20 9 10 15 28 30 18 8 12 15 19 18 16
5 5 6 6 10 14 8 8 19 8 5 6 4 9 12 7 3 6 8 5 4 10 21 7 4 10 15 14 12 13 14 12 19 24 14 22 28 34 26 21 25 30 26 23 30
9 9 10 5 25 20 11 11 12 6 4 7 9 11 6 6 6 10 10 5 4 4 15 12 4 8 6 15 15 18 18 20 23 19 19 31 33 36 38 27 26 26 29 36 40
20 24 25 18 11 14 6 9 11 11 8 7 17 9 11 10 11 12 6 5 4 5 6 5 5 3 7 9 11 12 23 21 24 23 20 19 36 39 28 24 28 28 31 35 38

GFSSW_850_spd_141.txt.gz
Wind_Speed
30 27 25 23 21 21 19 30 30 32 29 27 29 26 20 20 22 21 20 17 16 22 10 11 10 7 6 7 6 4 9 13 18 15 14 8 5 5 4 7 5 5 3 3 10
32 30 27 26 24 24 20 22 28 28 30 27 25 26 27 23 21 28 22 24 24 19 17 8 9 8 11 9 6 10 11 18 16 16 12 13 12 8 6 10 9 8 8 7 9
30 32 31 28 28 25 24 22 26 25 29 27 24 24 27 27 20 29 28 29 24 19 13 10 8 9 13 11 12 9 16 15 19 16 17 19 16 9 8 10 11 13 12 11 13
33 30 32 31 29 28 25 23 22 27 25 28 24 24 23 22 10 6 21 30 24 20 15 12 11 13 11 16 16 11 17 22 17 14 13 18 23 28 18 20 7 6 3 13 17
36 33 30 32 32 29 28 26 24 27 25 25 25 24 21 22 30 2 8 17 22 21 17 17 17 16 16 14 20 13 21 16 18 15 13 13 15 19 23 23 20 9 10 13 17
37 35 33 30 33 30 30 28 23 24 27 23 23 23 23 23 17 18 3 14 20 24 22 15 12 11 8 9 12 7 11 22 17 18 17 13 21 19 13 16 19 15 14 13 18
35 38 34 31 31 31 31 28 25 23 26 22 23 23 24 26 10 19 26 9 20 24 21 28 16 11 7 1 5 8 12 12 20 18 14 12 21 23 23 23 19 23 20 17 19
35 35 35 34 31 33 32 30 28 25 24 22 22 20 17 19 14 20 16 20 13 17 22 22 26 16 12 5 2 6 10 16 18 19 18 10 24 17 21 29 31 29 26 22 20
37 38 36 33 34 33 33 31 27 24 21 22 21 16 9 19 27 20 20 20 16 14 16 16 19 12 10 8 4 8 11 18 20 22 13 16 19 19 25 25 25 28 32 33 31
40 38 35 33 34 34 34 31 24 22 19 18 18 12 13 22 18 24 20 21 15 13 10 11 12 5 7 8 11 7 10 16 17 13 14 20 23 21 22 19 21 25 28 31 35
39 38 38 38 34 35 35 30 21 13 30 22 15 16 1 13 19 23 23 22 19 14 12 11 6 10 11 15 19 15 12 20 19 16 2 19 22 23 28 30 30 30 30 27 30
39 38 37 37 37 36 39 43 48 13 17 25 13 25 7 18 14 21 23 22 18 12 19 8 14 27 17 12 8 18 15 17 18 14 10 19 24 23 25 25 32 31 33 33 31
39 39 37 38 40 36 41 54 39 23 8 13 19 26 11 16 19 24 28 28 20 21 14 21 26 20 21 19 15 20 14 13 17 11 17 17 25 25 30 34 36 36 34 35 34
37 38 37 37 35 43 38 37 44 29 6 10 9 16 14 10 8 16 27 27 12 17 20 16 24 17 20 25 21 21 19 18 16 11 11 10 12 20 24 21 22 29 31 36 36
36 37 37 41 40 40 27 37 52 29 9 18 10 15 24 19 16 10 19 28 24 19 10 16 15 18 20 19 14 22 14 11 10 14 10 16 7 16 19 24 22 21 28 30 33
36 37 35 41 42 36 36 40 39 6 8 12 18 20 22 25 12 13 14 17 16 18 20 21 10 15 26 23 18 4 5 7 10 12 11 23 20 14 17 24 23 24 27 28 27
30 34 38 41 48 44 32 44 8 7 13 9 15 24 27 15 16 13 15 19 13 14 22 25 24 17 10 15 6 8 7 4 4 5 7 17 17 23 15 17 19 17 16 21 22
28 38 42 43 44 41 42 18 15 10 10 14 18 23 21 22 18 18 17 17 22 20 10 18 18 26 21 20 22 15 10 4 8 4 8 11 9 13 18 21 31 31 22 24 21
27 34 42 43 43 40 36 18 10 19 12 21 22 21 15 22 13 18 22 22 21 24 15 14 20 11 22 26 21 11 11 21 11 18 6 7 17 16 15 14 13 18 21 24 25
34 36 41 42 42 43 6 17 5 15 17 25 14 18 18 25 21 21 21 18 22 26 23 14 11 18 14 21 24 26 15 8 7 6 8 12 21 14 9 14 12 14 20 22 20
35 21 30 41 40 35 11 6 4 24 26 19 17 17 17 22 22 21 17 9 24 21 25 18 13 6 11 16 23 18 21 20 12 12 14 15 15 16 19 19 20 17 21 14 13
25 5 25 39 13 5 15 9 12 24 21 5 12 12 20 25 21 22 19 19 12 24 23 22 7 12 17 12 14 19 23 23 5 7 9 18 21 13 4 6 7 13 6 9 10
24 6 25 42 10 8 6 11 19 27 20 12 7 9 18 18 12 18 17 16 13 17 14 15 9 9 6 10 12 9 19 20 18 19 19 7 13 16 19 19 18 9 10 14 19
13 5 13 25 8 15 10 12 18 20 7 6 14 19 21 19 6 18 15 14 17 13 7 10 15 14 15 14 6 6 16 21 21 15 12 17 25 32 25 18 11 18 13 13 19
10 3 5 9 4 15 8 11 22 11 6 14 9 20 21 14 9 10 18 13 15 16 17 8 5 15 23 20 21 20 15 11 11 19 18 25 27 36 27 23 25 29 28 30 30
11 5 8 6 24 16 12 14 19 8 7 10 16 22 13 15 10 16 16 15 10 16 13 10 4 6 5 14 16 20 23 23 23 22 18 23 27 34 38 36 38 32 30 32 36
13 16 19 17 16 9 10 12 14 13 8 14 23 16 13 14 10 16 11 6 6 13 16 9 6 2 5 8 13 10 23 23 23 23 22 22 28 30 29 20 23 29 35 35 37

GFSSW_850_spd_147.txt.gz
Wind_Speed
26 27 24 21 18 16 16 17 19 25 26 23 21 22 19 21 20 19 17 13 9 12 12 9 5 7 4 3 3 3 3 2 4 2 4 6 3 4 4 5 1 1 3 6 10
28 25 28 25 21 19 16 16 17 18 25 24 22 20 21 19 18 22 22 17 14 16 12 6 4 4 3 3 3 4 3 6 6 5 5 4 0 5 2 4 3 6 7 8 11
34 29 24 28 25 22 18 16 16 15 17 23 22 20 17 19 21 26 25 21 19 19 14 10 6 2 3 6 4 5 4 6 18 20 10 4 6 5 4 2 5 2 9 15 16
32 34 28 24 27 25 21 18 16 14 12 19 20 20 16 15 7 4 15 18 18 18 17 9 8 3 2 2 6 4 11 12 19 24 14 5 6 8 5 9 8 10 9 9 18
36 33 34 28 24 27 24 19 17 17 14 15 16 19 19 16 18 6 8 11 13 17 18 16 13 8 5 5 6 7 8 16 20 23 17 13 6 8 14 18 15 16 10 11 14
30 34 33 33 28 25 26 22 20 17 16 14 16 18 21 21 19 22 11 4 10 16 18 15 7 13 5 6 6 6 4 6 7 14 15 11 9 6 7 15 15 15 14 16 19
35 33 34 32 32 27 25 25 21 19 16 15 17 19 24 23 6 19 18 14 12 8 13 14 18 9 4 1 3 2 4 6 4 8 6 12 10 6 20 23 28 27 21 17 20
37 34 32 31 31 31 26 26 24 21 18 15 17 17 12 19 25 14 14 16 13 12 16 16 14 11 3 2 3 3 3 2 3 10 12 6 19 6 10 18 23 29 32 32 30
38 39 34 33 29 30 28 25 25 22 18 15 19 15 10 18 20 21 11 17 13 13 15 12 13 7 4 2 2 1 6 4 6 15 7 8 20 9 19 24 24 23 27 33 34
41 41 37 33 29 29 28 23 23 20 17 15 12 9 18 10 20 26 18 17 15 13 9 11 7 4 5 7 13 6 5 5 9 2 5 10 21 10 24 24 31 33 32 29 32
40 41 38 35 35 27 28 24 16 12 28 11 18 17 9 23 17 21 25 19 15 15 7 12 4 14 14 10 13 2 3 8 6 6 14 13 18 12 21 23 26 32 35 40 40
37 37 39 35 30 32 31 32 26 13 10 29 6 33 8 17 12 18 26 19 12 10 12 4 14 8 4 8 9 11 11 14 9 7 6 10 17 17 19 21 26 31 33 35 40
40 35 35 35 32 30 35 40 25 22 6 21 25 16 33 8 14 25 29 20 8 10 13 11 5 14 7 8 8 11 15 12 8 4 10 10 15 16 15 26 31 38 39 40 42
37 36 34 33 30 33 38 36 28 23 5 6 17 11 20 7 9 19 30 22 6 15 6 8 17 7 11 14 11 15 7 7 9 5 6 7 6 16 9 17 20 29 33 40 42
35 35 35 37 26 42 33 35 32 14 11 17 14 11 20 19 13 18 28 25 10 7 8 12 10 12 12 14 7 10 7 9 9 9 8 7 5 10 3 10 15 15 22 28 36
36 36 38 37 35 36 30 35 32 9 9 8 17 17 17 25 5 22 23 21 9 4 3 16 7 10 11 14 11 5 1 4 2 1 10 16 10 12 10 15 12 15 28 35 35
41 37 40 41 43 29 37 29 11 6 10 11 13 23 27 15 17 8 14 15 11 11 14 6 12 3 3 5 6 5 5 4 5 5 5 9 7 16 16 20 12 19 27 32 32
38 41 41 43 40 32 38 12 17 9 5 3 11 24 22 18 16 12 17 17 18 5 6 12 5 15 6 10 7 7 10 7 8 5 4 2 7 8 17 27 30 35 40 33 40
42 38 42 43 42 40 30 17 15 5 10 7 17 23 14 18 11 14 20 21 15 16 9 8 8 5 8 7 10 5 7 12 12 10 3 5 6 14 14 16 16 20 22 23 25
37 33 33 41 39 41 14 13 8 2 7 11 9 13 12 22 13 17 18 16 5 18 6 4 2 7 8 8 13 15 6 3 3 4 11 7 7 9 9 4 7 8 8 18 26
35 15 25 36 39 32 11 7 4 12 7 17 10 8 7 19 19 19 12 6 16 19 12 4 3 4 9 8 11 4 11 6 3 4 3 6 6 9 9 5 6 11 24 31 22
23 3 21 41 8 5 11 6 7 8 13 12 5 3 15 23 20 18 16 11 25 22 19 5 3 4 6 4 6 17 18 15 8 7 4 3 11 3 11 14 21 14 27 22 28
20 6 28 43 9 5 6 6 3 5 7 4 8 6 9 15 9 13 16 19 19 16 15 10 4 2 7 6 3 5 6 8 5 5 16 9 12 1 10 9 22 21 24 31 34
10 3 10 25 10 5 7 9 6 12 8 10 7 5 13 16 3 13 13 12 21 19 18 23 4 8 10 5 5 5 5 6 8 7 18 15 25 28 15 7 13 25 30 38 41
6 3 5 13 11 11 5 14 19 7 7 20 7 18 16 9 8 9 10 5 9 19 13 11 7 6 1 6 2 4 6 10 14 17 9 19 14 25 13 8 18 29 35 36 30
7 5 5 10 15 13 14 9 16 4 12 7 10 21 18 15 14 15 15 9 12 5 12 3 3 3 1 3 5 9 11 7 6 5 9 9 18 19 23 24 19 21 12 16 24
6 10 4 14 6 6 10 5 22 15 9 6 19 13 15 17 14 22 18 15 11 15 7 8 6 3 4 3 1 8 7 13 12 8 8 11 22 22 11 12 16 18 22 22 26